• In India
  • List of Countries
  • For 7 days
  • Water Temperature
  • Satellite Maps
  • Weather Map
  • Weather Widgets
  • user-avatar
    Login

    Hourly Weather Nakhchivan

    Today, 18 December, Tuesday

    Time Temperature Precipitation Wind Pressure Humidity
    00:00 +7°C° 0.3 mm 1 mps 687 mmHg 77%
    01:00 +7°C° 0.7 mm 1 mps 687 mmHg 79%
    02:00 +7°C° 0.7 mm 1 mps 687 mmHg 81%
    03:00 +6°C° 0 mm 0 mps 687 mmHg 83%
    04:00 +5°C° 0.5 mm 0 mps 687 mmHg 84%
    05:00 +5°C° 0.5 mm 0 mps 687 mmHg 85%
    06:00 +5°C° 0.5 mm 0 mps 687 mmHg 86%
    07:00 +5°C° 0.1 mm 0 mps 688 mmHg 83%
    08:00 +6°C° 0.1 mm 0 mps 688 mmHg 81%
    09:00 +7°C° 0 mm 1 mps 688 mmHg 78%
    10:00 +8°C° 0 mm 1 mps 688 mmHg 75%
    11:00 +9°C° 0 mm 1 mps 688 mmHg 73%
    12:00 +9°C° 0 mm 1 mps 688 mmHg 70%
    13:00 +10°C° 0 mm 1 mps 688 mmHg 69%
    14:00 +10°C° 0 mm 1 mps 688 mmHg 67%
    15:00 +10°C° 0 mm 1 mps 688 mmHg 66%
    16:00 +9°C° 0 mm 1 mps 688 mmHg 69%
    17:00 +8°C° 0 mm 1 mps 689 mmHg 73%
    18:00 +8°C° 0 mm 1 mps 689 mmHg 76%
    19:00 +7°C° 0 mm 1 mps 689 mmHg 76%
    20:00 +7°C° 0 mm 1 mps 690 mmHg 76%
    21:00 +7°C° 0 mm 1 mps 690 mmHg 76%
    22:00 +7°C° 0 mm 1 mps 690 mmHg 77%
    23:00 +6°C° 0 mm 1 mps 690 mmHg 77%

    Tomorrow, 19 December, Wednesday

    Time Temperature Precipitation Wind Pressure Humidity
    00:00 +6°C° 0 mm 1 mps 690 mmHg 78%
    01:00 +6°C° 0 mm 1 mps 690 mmHg 79%
    02:00 +6°C° 0 mm 1 mps 690 mmHg 80%
    03:00 +5°C° 0 mm 1 mps 690 mmHg 81%
    04:00 +5°C° 0 mm 1 mps 690 mmHg 81%
    05:00 +5°C° 0 mm 1 mps 690 mmHg 82%
    06:00 +5°C° 0 mm 1 mps 691 mmHg 82%
    07:00 +6°C° 0 mm 1 mps 691 mmHg 78%
    08:00 +7°C° 0 mm 1 mps 691 mmHg 73%
    09:00 +8°C° 0 mm 1 mps 691 mmHg 69%
    10:00 +8°C° 0 mm 1 mps 691 mmHg 67%
    11:00 +9°C° 0 mm 1 mps 691 mmHg 65%
    12:00 +10°C° 0 mm 1 mps 690 mmHg 62%
    13:00 +10°C° 0 mm 1 mps 690 mmHg 61%
    14:00 +11°C° 0 mm 1 mps 690 mmHg 60%
    15:00 +11°C° 0 mm 1 mps 690 mmHg 59%
    16:00 +10°C° 0 mm 1 mps 690 mmHg 63%
    17:00 +9°C° 0 mm 1 mps 690 mmHg 68%
    18:00 +8°C° 0 mm 1 mps 690 mmHg 72%
    19:00 +7°C° 0 mm 1 mps 690 mmHg 71%
    20:00 +7°C° 0 mm 1 mps 690 mmHg 71%
    21:00 +7°C° 0 mm 1 mps 690 mmHg 71%
    22:00 +6°C° 0 mm 1 mps 690 mmHg 71%
    23:00 +6°C° 0 mm 1 mps 690 mmHg 71%

    Day after tomorrow, 20 December, Thursday

    Time Temperature Precipitation Wind Pressure Humidity
    00:00 +6°C° 0 mm 1 mps 690 mmHg 71%
    01:00 +6°C° 0 mm 1 mps 689 mmHg 71%
    02:00 +5°C° 0 mm 1 mps 689 mmHg 72%
    03:00 +5°C° 0 mm 1 mps 689 mmHg 72%
    04:00 +5°C° 0 mm 1 mps 689 mmHg 72%
    05:00 +5°C° 0 mm 1 mps 689 mmHg 72%
    06:00 +5°C° 0 mm 1 mps 689 mmHg 72%
    07:00 +6°C° 0 mm 1 mps 689 mmHg 69%
    08:00 +7°C° 0 mm 1 mps 689 mmHg 66%
    09:00 +8°C° 0 mm 1 mps 689 mmHg 64%
    10:00 +7°C° 0 mm 0 mps 689 mmHg 61%
    11:00 +8°C° 0 mm 0 mps 688 mmHg 59%
    12:00 +9°C° 0 mm 0 mps 688 mmHg 57%
    13:00 +10°C° 0 mm 1 mps 688 mmHg 56%
    14:00 +10°C° 0 mm 1 mps 687 mmHg 56%
    15:00 +10°C° 0 mm 1 mps 687 mmHg 56%
    16:00 +9°C° 0 mm 1 mps 687 mmHg 59%
    17:00 +8°C° 0 mm 1 mps 687 mmHg 63%
    18:00 +7°C° 0 mm 1 mps 687 mmHg 66%
    19:00 +7°C° 0.1 mm 1 mps 687 mmHg 67%
    20:00 +7°C° 0.1 mm 1 mps 687 mmHg 69%
    21:00 +7°C° 0.1 mm 1 mps 688 mmHg 70%
    22:00 +7°C° 0.2 mm 1 mps 688 mmHg 71%
    23:00 +6°C° 0.2 mm 1 mps 688 mmHg 72%

    21 December, Friday

    Time Temperature Precipitation Wind Pressure Humidity
    00:00 +6°C° 0.2 mm 1 mps 688 mmHg 73%
    01:00 +6°C° 0.1 mm 1 mps 688 mmHg 74%
    02:00 +5°C° 0.1 mm 1 mps 688 mmHg 75%
    03:00 +5°C° 0.1 mm 1 mps 688 mmHg 76%
    04:00 +5°C° 0 mm 1 mps 688 mmHg 77%
    05:00 +4°C° 0 mm 1 mps 688 mmHg 78%
    06:00 +4°C° 0 mm 1 mps 688 mmHg 79%
    07:00 +5°C° 0 mm 1 mps 689 mmHg 75%
    08:00 +5°C° 0 mm 1 mps 689 mmHg 72%
    09:00 +6°C° 0 mm 1 mps 690 mmHg 68%
    10:00 +7°C° 0 mm 1 mps 690 mmHg 65%
    11:00 +7°C° 0 mm 1 mps 690 mmHg 63%
    12:00 +8°C° 0 mm 1 mps 689 mmHg 60%
    13:00 +8°C° 0 mm 1 mps 689 mmHg 59%
    14:00 +8°C° 0 mm 1 mps 689 mmHg 59%
    15:00 +8°C° 0 mm 1 mps 689 mmHg 58%
    16:00 +7°C° 0 mm 1 mps 689 mmHg 63%
    17:00 +6°C° 0 mm 0 mps 689 mmHg 67%
    18:00 +5°C° 0 mm 0 mps 689 mmHg 71%
    19:00 +4°C° 0 mm 0 mps 690 mmHg 72%
    20:00 +4°C° 0 mm 0 mps 690 mmHg 72%
    21:00 +4°C° 0 mm 0 mps 690 mmHg 73%
    22:00 +3°C° 0 mm 0 mps 690 mmHg 73%
    23:00 +3°C° 0 mm 0 mps 690 mmHg 74%

    22 December, Saturday

    Time Temperature Precipitation Wind Pressure Humidity
    00:00 +3°C° 0 mm 0 mps 690 mmHg 74%
    01:00 +2°C° 0 mm 0 mps 690 mmHg 74%
    02:00 +2°C° 0 mm 0 mps 689 mmHg 74%
    03:00 +2°C° 0 mm 0 mps 689 mmHg 74%
    04:00 +2°C° 0 mm 0 mps 689 mmHg 74%
    05:00 +2°C° 0 mm 0 mps 689 mmHg 74%
    06:00 +1°C° 0 mm 0 mps 689 mmHg 74%
    07:00 +3°C° 0 mm 1 mps 689 mmHg 69%
    08:00 +4°C° 0 mm 1 mps 689 mmHg 65%
    09:00 +5°C° 0 mm 1 mps 689 mmHg 60%
    10:00 +6°C° 0 mm 1 mps 689 mmHg 58%
    11:00 +7°C° 0 mm 1 mps 688 mmHg 57%
    12:00 +8°C° 0 mm 1 mps 688 mmHg 55%
    13:00 +8°C° 0 mm 1 mps 687 mmHg 55%
    14:00 +8°C° 0 mm 1 mps 687 mmHg 54%
    15:00 +8°C° 0 mm 1 mps 687 mmHg 54%
    16:00 +7°C° 0 mm 1 mps 687 mmHg 57%
    17:00 +7°C° 0 mm 1 mps 687 mmHg 60%
    18:00 +6°C° 0 mm 1 mps 687 mmHg 63%
    19:00 +6°C° 0 mm 1 mps 687 mmHg 63%
    20:00 +6°C° 0 mm 1 mps 687 mmHg 63%
    21:00 +5°C° 0 mm 1 mps 687 mmHg 63%
    22:00 +5°C° 0.1 mm 1 mps 687 mmHg 65%
    23:00 +5°C° 0.1 mm 1 mps 687 mmHg 66%

    23 December, Sunday

    Time Temperature Precipitation Wind Pressure Humidity
    00:00 +5°C° 0.1 mm 1 mps 687 mmHg 68%
    01:00 +4°C° 0.1 mm 1 mps 687 mmHg 70%
    02:00 +4°C° 0.1 mm 1 mps 687 mmHg 73%
    03:00 +3°C° 0.1 mm 1 mps 687 mmHg 75%
    04:00 +3°C° 0 mm 1 mps 687 mmHg 77%
    05:00 +2°C° 0 mm 1 mps 687 mmHg 79%
    06:00 +2°C° 0 mm 1 mps 687 mmHg 81%
    07:00 +3°C° 0 mm 1 mps 688 mmHg 76%
    08:00 +3°C° 0 mm 1 mps 688 mmHg 71%
    09:00 +4°C° 0 mm 1 mps 689 mmHg 67%
    10:00 +5°C° 0 mm 1 mps 688 mmHg 64%
    11:00 +6°C° 0 mm 1 mps 688 mmHg 61%
    12:00 +6°C° 0 mm 1 mps 688 mmHg 58%
    13:00 +7°C° 0 mm 1 mps 688 mmHg 57%
    14:00 +7°C° 0 mm 1 mps 688 mmHg 56%
    15:00 +7°C° 0 mm 1 mps 687 mmHg 55%
    16:00 +6°C° 0 mm 1 mps 688 mmHg 59%
    17:00 +5°C° 0 mm 1 mps 688 mmHg 62%
    18:00 +4°C° 0 mm 1 mps 688 mmHg 66%
    19:00 +4°C° 0 mm 1 mps 689 mmHg 66%
    20:00 +3°C° 0 mm 1 mps 689 mmHg 66%
    21:00 +3°C° 0 mm 1 mps 689 mmHg 65%
    22:00 +3°C° 0 mm 1 mps 689 mmHg 65%
    23:00 +3°C° 0 mm 1 mps 689 mmHg 65%
    Show more